SL-8 R/B

Satellite information

Favourite Embed

Satellite Type and Status

ROCKET BODYIN ORBIT

Key statistics

Satellite SL-8 R/B at a glance.

Uptime

12605

Days in orbit

Revolutions

≈ 14.4

Per day

Orbit

LEO

Low Earth Orbit

Inclination

74.0

Latest

Satellite identification and parameters

Extended collection of information and parameters for SL-8 R/B.

Object identification

Identified? True

Debris? False

Object name: SL-8 R/B

International designator: 1991-041B

Object number (NORAD): 21419

Object ID (CCSDS): 21419

Country: COMMONWEALTH OF INDEPENDENT STATES (CIS)

Current information (Y/N): Y

RCS size: LARGE

Orbital parameters

Period: 100.335 minutes

Inclination: 74.0402 deg

SMA: 7152.578 km

Apoapsis: 804.221 km

Periapsis: 744.666 km

RAAN: 26.1546 deg

Eccentricy: 0.00416318

Argument of periapsis: 276.4984 deg

Mean anomaly: 83.1429 deg

Mean motion: 14.35188079 rev/day

Mean motion (dot): 0.00000359 rev/day2

B* drag term: 0.00013338952 1/REarth

Two-line elements (TLE)

Creation date: Dec. 12, 2025, 10:14 a.m.

Reference frame: TEME

Reference center: EARTH

Epoch: Dec. 12, 2025, 6:52 a.m. UTC

TLE line 0: 0 SL-8 R/B

TLE line 1: 1 21419U 91041B 25346.28625916 .00000359 00000-0 13339-3 0 9990

TLE line 2: 2 21419 74.0402 26.1546 0041632 276.4984 83.1429 14.35188079804573

Live tracking on map

Real-time ground track for satellite SL-8 R/B.

In-orbit conjunctions

A list of the most updated potential collisions computed for object SL-8 R/B.

Target Orbit TCA Probability of collision Miss distance Type
FENGYUN 1C DEB SSO 2025-10-15 00:42:49 0.0001123683 803.0 (m) DEBRIS
FENGYUN 1C DEB SSO 2025-09-29 04:21:14 0.00441233 33.0 (m) DEBRIS
CZ-4 DEB SSO 2025-09-03 03:54:01 0.0005032071 879.0 (m) DEBRIS
CZ-2D R/B SSO 2025-08-17 02:38:18 0.0001386544 139.0 (m) ROCKET BODY
CZ-6A DEB SSO 2025-05-04 12:33:10 0.0001032295 299.0 (m) DEBRIS

Associated space launch

Military communications satellite

SL-8 R/B was lifted into orbit during the mission ‘Kosmos-3M | Strela-2M 49’, on board a Kosmos-3M space rocket.

The launch took place on June 11, 1991, 5:41 a.m. from 133/3 (133L).

For more information about the launch, click the button.

Launch to space Kosmos-3M | Strela-2M 49
Kosmos-3M | Strela-2M 49

Agency: N/A

Status: Launch Successful

Launch date: June 11, 1991, 5:41 a.m. UTC

Rocket: Kosmos-3M

Launch pad: 133/3 (133L)

Location: Plesetsk Cosmodrome, Russian Federation

...

Latest news about this satellite

There are no fresh news available about this satellite. Check back as we update our databases every day.


Newsletter sign-up

Weekly statistics, charts and insights to help you stay on top of the space industry.